Simultaneous Nadir Overpasses (SNOs) Predictions

Prediction of SNOs between GOES-17 and METOP-B Satellite Orbit:

Table of predicted SNOs for the next 14.0 days since TLE Epoch: 8/3/2024
Index Date Time (GOES-17) GOES-17 Lat,Lon METOP-B Lat,Lon Distance(km) Time Diff (sec)
1 08/04/2024 04:16:49 -0.00,-104.67 0.05,-104.46 23.91 80
2 08/05/2024 16:38:24 0.00,-104.71 0.99,-109.04 493.97 80
3 08/06/2024 16:15:06 -0.00,-104.72 -0.12,-104.06 74.27 80
4 08/08/2024 04:36:49 -0.00,-104.70 -0.89,-108.69 454.53 80
5 08/09/2024 04:13:32 0.00,-104.71 0.23,-103.71 113.80 80
6 08/10/2024 16:35:06 0.00,-104.75 0.80,-108.29 403.58 80
7 08/11/2024 16:11:49 -0.00,-104.76 -0.33,-103.32 164.74 80
8 08/13/2024 04:33:31 -0.01,-104.74 -0.73,-107.93 364.04 80
9 08/14/2024 04:10:14 -0.00,-104.74 0.41,-102.95 204.04 80
10 08/15/2024 16:31:48 0.01,-104.78 0.61,-107.54 313.91 80
11 08/16/2024 16:08:29 0.01,-104.78 -0.47,-102.55 254.03 80
